When you browse on this site, cookies collect data to enhance your experience and personalize the content and advertising you see.
Visit our Privacy Policy to learn more. By continuing to use the site, you agree to this use of cookies and data.
  • In Germany
  • List of Countries
  • For 7 days
  • Water Temperature
  • Satellite Maps
  • Weather Map
  • Weather Widgets
  • user-avatar
    Login

    Hourly Weather Mendoza

    Today, 19 March, Tuesday

    Time Temperature Precipitation Wind Pressure Humidity
    00:00 +20°C° 0 mm 6 mps 698 mmHg 47%
    01:00 +19°C° 0 mm 6 mps 698 mmHg 42%
    02:00 +17°C° 0 mm 6 mps 698 mmHg 39%
    03:00 +16°C° 0 mm 6 mps 699 mmHg 37%
    04:00 +15°C° 0 mm 6 mps 699 mmHg 34%
    05:00 +15°C° 0 mm 6 mps 699 mmHg 35%
    06:00 +14°C° 0 mm 6 mps 700 mmHg 36%
    07:00 +14°C° 0 mm 5 mps 700 mmHg 37%
    08:00 +15°C° 0 mm 5 mps 701 mmHg 35%
    09:00 +16°C° 0 mm 6 mps 701 mmHg 34%
    10:00 +17°C° 0 mm 6 mps 701 mmHg 32%
    11:00 +19°C° 0 mm 5 mps 701 mmHg 31%
    12:00 +20°C° 0 mm 5 mps 701 mmHg 30%
    13:00 +20°C° 0 mm 5 mps 700 mmHg 29%
    14:00 +21°C° 0 mm 5 mps 700 mmHg 29%
    15:00 +21°C° 0 mm 5 mps 700 mmHg 29%
    16:00 +21°C° 0 mm 5 mps 700 mmHg 29%
    17:00 +20°C° 0 mm 4 mps 701 mmHg 31%
    18:00 +19°C° 0 mm 3 mps 702 mmHg 33%
    19:00 +18°C° 0 mm 2 mps 702 mmHg 35%
    20:00 +17°C° 0 mm 3 mps 703 mmHg 38%
    21:00 +16°C° 0 mm 3 mps 703 mmHg 41%
    22:00 +16°C° 0 mm 3 mps 703 mmHg 43%
    23:00 +14°C° 0 mm 3 mps 703 mmHg 46%

    Tomorrow, 20 March, Wednesday

    Time Temperature Precipitation Wind Pressure Humidity
    00:00 +14°C° 0 mm 3 mps 703 mmHg 49%
    01:00 +13°C° 0 mm 3 mps 702 mmHg 51%
    02:00 +13°C° 0 mm 4 mps 702 mmHg 53%
    03:00 +12°C° 0 mm 4 mps 702 mmHg 54%
    04:00 +11°C° 0 mm 4 mps 701 mmHg 56%
    05:00 +12°C° 0 mm 4 mps 702 mmHg 55%
    06:00 +12°C° 0 mm 3 mps 702 mmHg 54%
    07:00 +13°C° 0 mm 3 mps 702 mmHg 53%
    08:00 +14°C° 0 mm 3 mps 702 mmHg 48%
    09:00 +16°C° 0 mm 2 mps 702 mmHg 42%
    10:00 +19°C° 0 mm 1 mps 702 mmHg 37%
    11:00 +19°C° 0 mm 2 mps 701 mmHg 34%
    12:00 +20°C° 0 mm 2 mps 701 mmHg 31%
    13:00 +21°C° 0 mm 2 mps 700 mmHg 28%
    14:00 +21°C° 0 mm 2 mps 700 mmHg 28%
    15:00 +21°C° 0 mm 2 mps 700 mmHg 28%
    16:00 +21°C° 0 mm 2 mps 699 mmHg 28%
    17:00 +21°C° 0 mm 2 mps 699 mmHg 30%
    18:00 +20°C° 0 mm 2 mps 700 mmHg 32%
    19:00 +19°C° 0 mm 3 mps 700 mmHg 34%
    20:00 +18°C° 0 mm 3 mps 700 mmHg 35%
    21:00 +18°C° 0 mm 3 mps 700 mmHg 37%
    22:00 +18°C° 0 mm 3 mps 700 mmHg 38%
    23:00 +17°C° 0 mm 3 mps 700 mmHg 41%

    Day after tomorrow, 21 March, Thursday

    Time Temperature Precipitation Wind Pressure Humidity
    00:00 +17°C° 0 mm 2 mps 699 mmHg 44%
    01:00 +17°C° 0 mm 2 mps 699 mmHg 47%
    02:00 +16°C° 0 mm 2 mps 698 mmHg 47%
    03:00 +16°C° 0 mm 2 mps 698 mmHg 48%
    04:00 +15°C° 0 mm 2 mps 698 mmHg 48%
    05:00 +16°C° 0 mm 2 mps 698 mmHg 47%
    06:00 +17°C° 0 mm 2 mps 698 mmHg 46%
    07:00 +17°C° 0 mm 2 mps 698 mmHg 45%
    08:00 +18°C° 0 mm 2 mps 698 mmHg 45%
    09:00 +20°C° 0 mm 3 mps 698 mmHg 46%
    10:00 +21°C° 0 mm 3 mps 698 mmHg 46%
    11:00 +22°C° 0 mm 3 mps 697 mmHg 45%
    12:00 +24°C° 0 mm 3 mps 697 mmHg 44%
    13:00 +25°C° 0 mm 3 mps 696 mmHg 42%
    14:00 +25°C° 0 mm 3 mps 696 mmHg 42%
    15:00 +25°C° 0 mm 3 mps 696 mmHg 42%
    16:00 +25°C° 0 mm 3 mps 695 mmHg 43%
    17:00 +24°C° 0 mm 2 mps 696 mmHg 48%
    18:00 +23°C° 0 mm 2 mps 696 mmHg 53%
    19:00 +22°C° 0 mm 1 mps 696 mmHg 58%
    20:00 +21°C° 0 mm 1 mps 697 mmHg 59%
    21:00 +21°C° 0 mm 1 mps 697 mmHg 61%
    22:00 +21°C° 0 mm 1 mps 698 mmHg 62%
    23:00 +20°C° 0 mm 1 mps 698 mmHg 63%

    22 March, Friday

    Time Temperature Precipitation Wind Pressure Humidity
    00:00 +20°C° 0 mm 1 mps 698 mmHg 64%
    01:00 +19°C° 0 mm 1 mps 698 mmHg 65%
    02:00 +19°C° 0 mm 1 mps 698 mmHg 66%
    03:00 +19°C° 0 mm 1 mps 698 mmHg 66%
    04:00 +17°C° 0 mm 2 mps 699 mmHg 66%
    05:00 +18°C° 0 mm 2 mps 699 mmHg 64%
    06:00 +19°C° 0 mm 2 mps 700 mmHg 62%
    07:00 +19°C° 0 mm 2 mps 700 mmHg 60%
    08:00 +21°C° 0 mm 2 mps 700 mmHg 55%
    09:00 +23°C° 0 mm 2 mps 701 mmHg 51%
    10:00 +25°C° 0 mm 2 mps 701 mmHg 46%
    11:00 +26°C° 0 mm 3 mps 700 mmHg 42%
    12:00 +27°C° 0 mm 3 mps 700 mmHg 39%
    13:00 +28°C° 0 mm 3 mps 699 mmHg 35%
    14:00 +28°C° 0 mm 4 mps 699 mmHg 34%
    15:00 +28°C° 0 mm 4 mps 699 mmHg 33%
    16:00 +28°C° 0 mm 4 mps 698 mmHg 32%
    17:00 +27°C° 0 mm 3 mps 699 mmHg 34%
    18:00 +26°C° 0 mm 3 mps 699 mmHg 36%
    19:00 +25°C° 0 mm 3 mps 700 mmHg 38%
    20:00 +24°C° 0 mm 3 mps 700 mmHg 40%
    21:00 +24°C° 0 mm 3 mps 700 mmHg 42%
    22:00 +22°C° 0 mm 3 mps 700 mmHg 44%
    23:00 +22°C° 0 mm 3 mps 700 mmHg 46%

    23 March, Saturday

    Time Temperature Precipitation Wind Pressure Humidity
    00:00 +21°C° 0 mm 2 mps 699 mmHg 49%
    01:00 +21°C° 0 mm 2 mps 699 mmHg 51%
    02:00 +20°C° 0 mm 2 mps 699 mmHg 53%
    03:00 +21°C° 0 mm 1 mps 698 mmHg 54%
    04:00 +20°C° 0 mm 1 mps 698 mmHg 56%
    05:00 +21°C° 0 mm 1 mps 699 mmHg 52%
    06:00 +22°C° 0 mm 1 mps 699 mmHg 48%
    07:00 +23°C° 0 mm 2 mps 699 mmHg 45%
    08:00 +24°C° 0 mm 2 mps 699 mmHg 42%
    09:00 +26°C° 0 mm 3 mps 699 mmHg 38%
    10:00 +27°C° 0 mm 3 mps 699 mmHg 35%
    11:00 +28°C° 0 mm 3 mps 699 mmHg 33%
    12:00 +29°C° 0 mm 3 mps 699 mmHg 32%
    13:00 +30°C° 0 mm 3 mps 699 mmHg 30%
    14:00 +30°C° 0 mm 3 mps 699 mmHg 30%
    15:00 +31°C° 0 mm 2 mps 698 mmHg 29%
    16:00 +31°C° 0 mm 2 mps 698 mmHg 29%
    17:00 +29°C° 0 mm 2 mps 699 mmHg 33%
    18:00 +27°C° 0 mm 1 mps 700 mmHg 36%
    19:00 +26°C° 0 mm 1 mps 700 mmHg 40%
    20:00 +25°C° 0 mm 1 mps 701 mmHg 42%
    21:00 +25°C° 0 mm 1 mps 701 mmHg 45%
    22:00 +24°C° 0 mm 1 mps 701 mmHg 48%
    23:00 +24°C° 0 mm 2 mps 702 mmHg 47%

    24 March, Sunday

    Time Temperature Precipitation Wind Pressure Humidity
    00:00 +23°C° 0 mm 4 mps 702 mmHg 47%
    01:00 +23°C° 0 mm 5 mps 702 mmHg 47%
    02:00 +23°C° 0 mm 6 mps 703 mmHg 44%
    03:00 +22°C° 0 mm 6 mps 703 mmHg 41%
    04:00 +22°C° 0 mm 7 mps 703 mmHg 39%
    05:00 +21°C° 0 mm 6 mps 703 mmHg 45%
    06:00 +20°C° 0 mm 6 mps 704 mmHg 51%
    07:00 +19°C° 0 mm 5 mps 704 mmHg 57%
    08:00 +19°C° 0 mm 5 mps 704 mmHg 55%
    09:00 +19°C° 0 mm 5 mps 704 mmHg 53%
    10:00 +19°C° 0 mm 5 mps 704 mmHg 51%
    11:00 +20°C° 0 mm 4 mps 703 mmHg 47%
    12:00 +21°C° 0 mm 4 mps 703 mmHg 44%
    13:00 +22°C° 0 mm 4 mps 702 mmHg 40%
    14:00 +22°C° 0 mm 3 mps 702 mmHg 39%
    15:00 +24°C° 0 mm 3 mps 701 mmHg 38%
    16:00 +24°C° 0 mm 2 mps 701 mmHg 37%
    17:00 +23°C° 0 mm 2 mps 701 mmHg 39%
    18:00 +21°C° 0 mm 2 mps 701 mmHg 41%
    19:00 +21°C° 0 mm 1 mps 702 mmHg 42%
    20:00 +20°C° 0 mm 1 mps 701 mmHg 44%
    21:00 +20°C° 0 mm 1 mps 701 mmHg 45%
    22:00 +18°C° 0 mm 2 mps 701 mmHg 47%
    23:00 +18°C° 0 mm 2 mps 701 mmHg 51%
    Show more